Middletown, OH

2:56 AM EDT on October 21, 2017 (GMT -0400)
Hook Field Municipal

Weather History for KMWO - April, 2014

Change the Weather History Date:

Sunday, April 27, 2014

  Actual Average (KFFO) Record (KFFO)
Temperature  
Mean Temperature 58 °F -  
Max Temperature 72 °F 65 °F 77 °F (2001)
Min Temperature 45 °F 43 °F 32 °F (2015)
Degree Days  
Heating Degree Days 6    
Growing Degree Days 8 (Base 50)    
Moisture  
Dew Point 35 °F    
Average Humidity 43    
Maximum Humidity 65    
Minimum Humidity 27    
Precipitation  
Precipitation 0.00 in - - ()
Sea Level Pressure  
Sea Level Pressure 29.99 in    
Wind  
Wind Speed 10 mph (ENE)    
Max Wind Speed 17 mph    
Max Gust Speed 23 mph    
Visibility 10 miles    
Events      
Averages and records for this station are not official NWS values.
T = Trace of Precipitation, MM = Missing Value Source: NWS Daily Summary

Daily Weather History Graph

Daily Weather History Graph

Search for Another Location

Airport or City:

Trip Planner

Search our weather history database for the weather conditions in past years. The results will help you decide how hot, cold, wet, or windy it might be!

Date:

Astronomy

Apr. 27, 2014 Rise Set
Actual Time 6:43 AM EDT 8:27 PM EDT
Civil Twilight 6:14 AM EDT 8:56 PM EDT
Nautical Twilight 5:40 AM EDT 9:31 PM EDT
Astronomical Twilight 5:03 AM EDT 10:08 PM EDT
Moon 5:43 AM EDT (4/27) 7:00 PM EDT (4/27)
Length of Visible Light 14h 41m
Length of Day
13h 43m
Waning Crescent, 3% of the Moon is Illuminated
Apr 27
Waning Crescent
Apr 29
New
May 6
First Quarter
May 14
Full
May 21
Last Quarter

Hourly Weather History & Observations

Time (EDT) Temp. Windchill Dew Point Humidity Pressure Visibility Wind Dir Wind Speed Gust Speed Precip Events Conditions
12:15 AM 55.4 °F - 34.5 °F 45% 30.00 in 10.0 mi ENE 10.4 mph - N/A   Clear
12:35 AM 55.4 °F - 35.1 °F 46% 30.00 in 10.0 mi ENE 8.1 mph - N/A   Clear
12:55 AM 52.7 °F - 35.2 °F 52% 30.00 in 10.0 mi NE 9.2 mph - N/A   Clear
1:15 AM 52.7 °F - 35.4 °F 52% 30.01 in 10.0 mi ENE 9.2 mph - N/A   Clear
1:35 AM 52.7 °F - 36.1 °F 53% 30.02 in 10.0 mi NE 8.1 mph - N/A   Clear
2:15 AM 52.7 °F - 37.8 °F 57% 30.02 in 10.0 mi NE 5.8 mph - N/A   Clear
2:35 AM 52.5 °F - 37.8 °F 57% 30.02 in 10.0 mi NE 6.9 mph - N/A   Clear
2:55 AM 52.0 °F - 36.7 °F 56% 30.02 in 10.0 mi NE 8.1 mph - N/A   Clear
3:15 AM 50.0 °F - 35.6 °F 58% 30.01 in 10.0 mi NE 8.1 mph - N/A   Clear
3:35 AM 49.3 °F - 34.9 °F 58% 30.01 in 10.0 mi NE 8.1 mph - N/A   Clear
3:55 AM 47.8 °F - 33.6 °F 58% 30.01 in 10.0 mi NE 10.4 mph - N/A   Clear
4:15 AM 47.7 °F - 33.8 °F 59% 30.02 in 10.0 mi NE 9.2 mph - N/A   Clear
4:35 AM 47.7 °F - 34.2 °F 60% 30.02 in 10.0 mi NE 11.5 mph 16.1 mph N/A   Clear
4:55 AM 47.7 °F - 34.9 °F 61% 30.02 in 10.0 mi NE 12.7 mph - N/A   Clear
5:15 AM 47.7 °F - 35.1 °F 62% 30.03 in 10.0 mi NE 9.2 mph - N/A   Scattered Clouds
5:35 AM 47.7 °F - 34.9 °F 61% 30.04 in 10.0 mi NE 9.2 mph - N/A   Mostly Cloudy
5:55 AM 47.7 °F - 34.7 °F 61% 30.05 in 10.0 mi NE 11.5 mph - N/A   Overcast
6:15 AM 47.7 °F - 35.6 °F 63% 30.05 in 10.0 mi NE 9.2 mph - N/A   Scattered Clouds
6:35 AM 47.1 °F - 35.2 °F 63% 30.05 in 10.0 mi ENE 10.4 mph - N/A   Scattered Clouds
6:55 AM 45.1 °F 40.3 °F 33.8 °F 65% 30.06 in 10.0 mi NE 9.2 mph - N/A   Clear
7:15 AM 45.1 °F 40.8 °F 33.8 °F 65% 30.06 in 10.0 mi ENE 8.1 mph - N/A   Clear
7:35 AM 45.1 °F 39.1 °F 33.1 °F 63% 30.07 in 10.0 mi ENE 12.7 mph - N/A   Clear
7:55 AM 47.7 °F - 34.9 °F 61% 30.08 in 10.0 mi East 8.1 mph - N/A   Clear
8:15 AM 47.7 °F - 34.9 °F 61% 30.08 in 10.0 mi ENE 11.5 mph - N/A   Clear
8:35 AM 47.7 °F - 34.3 °F 60% 30.08 in 10.0 mi ENE 10.4 mph - N/A   Clear
8:55 AM 47.7 °F - 33.4 °F 58% 30.08 in 10.0 mi ENE 8.1 mph - N/A   Clear
9:15 AM 50.2 °F - 34.7 °F 55% 30.08 in 10.0 mi ENE 10.4 mph - N/A   Scattered Clouds
9:35 AM 52.7 °F - 35.1 °F 51% 30.09 in 10.0 mi ENE 9.2 mph - N/A   Scattered Clouds
9:55 AM 52.7 °F - 32.9 °F 47% 30.08 in 10.0 mi ENE 13.8 mph - N/A   Clear
10:15 AM 54.5 °F - 32.9 °F 44% 30.06 in 10.0 mi East 13.8 mph 23.0 mph N/A   Clear
10:35 AM 55.4 °F - 32.7 °F 42% 30.07 in 10.0 mi East 16.1 mph 19.6 mph N/A   Clear
10:55 AM 56.8 °F - 33.6 °F 42% 30.07 in 10.0 mi East 13.8 mph 18.4 mph N/A   Clear
11:15 AM 57.7 °F - 33.6 °F 40% 30.06 in 10.0 mi ENE 13.8 mph 19.6 mph N/A   Clear
11:35 AM 57.9 °F - 32.9 °F 39% 30.05 in 10.0 mi East 12.7 mph - N/A   Clear
12:15 PM 60.1 °F - 32.0 °F 35% 30.02 in 10.0 mi East 15.0 mph 19.6 mph N/A   Clear
12:35 PM 61.7 °F - 32.5 °F 33% 30.00 in 10.0 mi ENE 17.3 mph 21.9 mph N/A   Clear
12:55 PM 64.9 °F - 34.5 °F 32% 30.00 in 10.0 mi ESE 13.8 mph 18.4 mph N/A   Clear
1:35 PM 67.6 °F - 36.3 °F 32% 29.98 in 10.0 mi East 10.4 mph 18.4 mph N/A   Clear
1:55 PM 67.6 °F - 36.7 °F 32% 29.97 in 10.0 mi East 12.7 mph - N/A   Clear
2:15 PM 67.6 °F - 36.1 °F 31% 29.98 in 10.0 mi East 13.8 mph 19.6 mph N/A   Clear
2:35 PM 67.6 °F - 35.6 °F 31% 29.98 in 10.0 mi East 11.5 mph 18.4 mph N/A   Clear
2:55 PM 67.6 °F - 36.7 °F 32% 29.97 in 10.0 mi East 15.0 mph 19.6 mph N/A   Clear
3:15 PM 69.8 °F - 37.8 °F 31% 29.97 in 10.0 mi East 11.5 mph 18.4 mph N/A   Clear
3:35 PM 72.7 °F - 39.2 °F 30% 29.96 in 10.0 mi East 12.7 mph 19.6 mph N/A   Clear
3:55 PM 72.7 °F - 38.8 °F 29% 29.95 in 10.0 mi East 15.0 mph - N/A   Clear
4:15 PM 72.7 °F - 38.1 °F 28% 29.94 in 10.0 mi East 12.7 mph 18.4 mph N/A   Clear
4:35 PM 72.7 °F - 37.8 °F 28% 29.92 in 10.0 mi East 15.0 mph - N/A   Clear
4:55 PM 72.7 °F - 37.2 °F 27% 29.92 in 10.0 mi ESE 12.7 mph 18.4 mph N/A   Clear
5:15 PM 72.7 °F - 37.2 °F 27% 29.92 in 10.0 mi East 15.0 mph - N/A   Clear
5:35 PM 72.7 °F - 37.6 °F 28% 29.91 in 10.0 mi East 15.0 mph 19.6 mph N/A   Clear
5:55 PM 72.7 °F - 38.7 °F 29% 29.91 in 10.0 mi East 11.5 mph 21.9 mph N/A   Clear
6:15 PM 72.7 °F - 37.9 °F 28% 29.91 in 10.0 mi East 9.2 mph 17.3 mph N/A   Clear
6:35 PM 72.7 °F - 38.8 °F 29% 29.91 in 10.0 mi East 12.7 mph - N/A   Clear
6:55 PM 68.9 °F - 37.2 °F 31% 29.90 in 10.0 mi ENE 11.5 mph - N/A   Clear
7:15 PM 67.6 °F - 37.0 °F 32% 29.90 in 10.0 mi ENE 9.2 mph - N/A   Clear
7:35 PM 67.6 °F - 35.4 °F 30% 29.91 in 10.0 mi East 10.4 mph - N/A   Clear
7:55 PM 67.6 °F - 37.6 °F 33% 29.91 in 10.0 mi ENE 9.2 mph - N/A   Clear
8:15 PM 67.6 °F - 37.6 °F 33% 29.91 in 10.0 mi ENE 12.7 mph - N/A   Clear
8:35 PM 67.6 °F - 36.5 °F 32% 29.91 in 10.0 mi ENE 11.5 mph 17.3 mph N/A   Clear
8:55 PM 63.7 °F - 36.5 °F 36% 29.92 in 10.0 mi ENE 8.1 mph - N/A   Clear
9:15 PM 63.5 °F - 35.4 °F 35% 29.92 in 10.0 mi ENE 10.4 mph - N/A   Clear
9:35 PM 62.6 °F - 35.8 °F 37% 29.93 in 10.0 mi ENE 10.4 mph - N/A   Clear
9:55 PM 61.0 °F - 34.7 °F 37% 29.92 in 10.0 mi ENE 8.1 mph - N/A   Clear
10:15 PM 60.4 °F - 34.0 °F 37% 29.92 in 10.0 mi ENE 10.4 mph - N/A   Clear
10:35 PM 60.1 °F - 33.6 °F 37% 29.92 in 10.0 mi ENE 9.2 mph - N/A   Clear
10:55 PM 59.9 °F - 33.8 °F 38% 29.91 in 10.0 mi NE 8.1 mph - N/A   Clear
11:15 PM 59.0 °F - 32.2 °F 36% 29.90 in 10.0 mi ENE 9.2 mph - N/A   Scattered Clouds
11:35 PM 59.0 °F - 31.1 °F 35% 29.89 in 10.0 mi ENE 8.1 mph - N/A   Clear
11:55 PM 59.0 °F - 30.6 °F 34% 29.89 in 10.0 mi ENE 8.1 mph - N/A   Clear